Time,TemperatureF,DewpointF,PressureIn,WindDirection,WindDirectionDegrees,WindSpeedMPH,WindSpeedGustMPH,Humidity,HourlyPrecipIn,Conditions,Clouds,dailyrainin,SolarRadiationWatts/m^2,SoftwareType,DateUTC
2013-10-02 00:14:00,61.7,57.0,29.94,WSW,242,1.0,2.0,83,0.00,,,0.00,0,weatherlink.com 1.10,2013-10-02 04:14:00,
2013-10-02 00:29:00,61.6,56.0,29.94,WSW,242,0.0,1.0,83,0.00,,,0.00,0,weatherlink.com 1.10,2013-10-02 04:29:00,
2013-10-02 00:44:00,61.6,56.0,29.94,WSW,242,0.0,2.0,83,0.00,,,0.00,0,weatherlink.com 1.10,2013-10-02 04:44:00,
2013-10-02 00:59:00,61.4,57.0,29.94,WSW,242,0.0,2.0,84,0.00,,,0.00,0,weatherlink.com 1.10,2013-10-02 04:59:00,
2013-10-02 01:29:00,60.9,56.0,29.95,WSW,242,0.0,1.0,85,0.00,,,0.00,0,weatherlink.com 1.10,2013-10-02 05:29:00,
2013-10-02 01:44:00,61.1,57.0,29.94,WSW,242,1.0,2.0,85,0.00,,,0.00,0,weatherlink.com 1.10,2013-10-02 05:44:00,
2013-10-02 01:59:00,60.9,56.0,29.94,WSW,242,0.0,1.0,85,0.00,,,0.00,0,weatherlink.com 1.10,2013-10-02 05:59:00,
2013-10-02 02:14:00,60.6,56.0,29.94,WSW,242,0.0,0.0,86,0.00,,,0.00,0,weatherlink.com 1.10,2013-10-02 06:14:00,
2013-10-02 02:29:00,60.4,56.0,29.94,WSW,242,0.0,1.0,86,0.00,,,0.00,0,weatherlink.com 1.10,2013-10-02 06:29:00,
2013-10-02 02:44:00,60.4,56.0,29.93,WSW,242,2.0,2.0,86,0.00,,,0.00,0,weatherlink.com 1.10,2013-10-02 06:44:00,
2013-10-02 02:59:00,60.6,56.0,29.94,WSW,257,0.0,3.0,86,0.00,,,0.00,0,weatherlink.com 1.10,2013-10-02 06:59:00,
2013-10-02 03:14:00,60.7,56.0,29.93,West,261,0.0,2.0,85,0.00,,,0.00,0,weatherlink.com 1.10,2013-10-02 07:14:00,
2013-10-02 03:29:00,60.4,56.0,29.93,West,261,0.0,1.0,85,0.00,,,0.00,0,weatherlink.com 1.10,2013-10-02 07:29:00,
2013-10-02 03:44:00,60.1,56.0,29.94,West,261,0.0,2.0,85,0.00,,,0.00,0,weatherlink.com 1.10,2013-10-02 07:44:00,
2013-10-02 03:59:00,59.6,56.0,29.94,West,261,1.0,1.0,86,0.00,,,0.00,0,weatherlink.com 1.10,2013-10-02 07:59:00,
2013-10-02 04:14:00,59.3,55.0,29.95,West,261,0.0,1.0,86,0.00,,,0.00,0,weatherlink.com 1.10,2013-10-02 08:14:00,
2013-10-02 04:29:00,59.3,56.0,29.94,West,268,1.0,3.0,87,0.00,,,0.00,0,weatherlink.com 1.10,2013-10-02 08:29:00,
2013-10-02 04:44:00,59.4,55.0,29.94,West,268,0.0,1.0,85,0.00,,,0.00,0,weatherlink.com 1.10,2013-10-02 08:44:00,
2013-10-02 04:59:00,59.5,55.0,29.94,West,268,0.0,2.0,85,0.00,,,0.00,0,weatherlink.com 1.10,2013-10-02 08:59:00,
2013-10-02 05:14:00,59.1,55.0,29.93,West,268,0.0,0.0,85,0.00,,,0.00,0,weatherlink.com 1.10,2013-10-02 09:14:00,
2013-10-02 05:29:00,58.5,54.0,29.93,West,268,0.0,2.0,86,0.00,,,0.00,0,weatherlink.com 1.10,2013-10-02 09:29:00,
2013-10-02 05:44:00,58.2,54.0,29.94,West,268,0.0,2.0,87,0.00,,,0.00,0,weatherlink.com 1.10,2013-10-02 09:44:00,
2013-10-02 05:59:00,58.0,54.0,29.94,West,268,0.0,1.0,87,0.00,,,0.00,0,weatherlink.com 1.10,2013-10-02 09:59:00,
2013-10-02 06:14:00,57.6,54.0,29.94,West,268,0.0,0.0,87,0.00,,,0.00,0,weatherlink.com 1.10,2013-10-02 10:14:00,
2013-10-02 06:29:00,57.1,54.0,29.94,West,272,3.0,3.0,89,0.00,,,0.00,0,weatherlink.com 1.10,2013-10-02 10:29:00,
2013-10-02 06:44:00,57.7,54.0,29.94,West,262,1.0,6.0,88,0.00,,,0.00,5,weatherlink.com 1.10,2013-10-02 10:44:00,
2013-10-02 06:59:00,58.2,54.0,29.95,West,277,3.0,5.0,87,0.00,,,0.00,16,weatherlink.com 1.10,2013-10-02 10:59:00,
2013-10-02 07:15:00,59.1,55.0,29.95,West,261,2.0,6.0,86,0.00,,,0.00,42,weatherlink.com 1.10,2013-10-02 11:15:00,
2013-10-02 07:30:00,59.8,55.0,29.95,WNW,300,3.0,6.0,84,0.00,,,0.00,70,weatherlink.com 1.10,2013-10-02 11:30:00,
2013-10-02 07:45:00,60.5,56.0,29.95,West,277,3.0,4.0,84,0.00,,,0.00,121,weatherlink.com 1.10,2013-10-02 11:45:00,
2013-10-02 08:00:00,61.6,56.0,29.96,West,274,3.0,6.0,82,0.00,,,0.00,202,weatherlink.com 1.10,2013-10-02 12:00:00,
2013-10-02 08:15:00,62.7,56.0,29.96,West,275,5.0,9.0,79,0.00,,,0.00,109,weatherlink.com 1.10,2013-10-02 12:15:00,
2013-10-02 08:30:00,63.1,57.0,29.95,WSW,257,0.0,8.0,79,0.00,,,0.00,336,weatherlink.com 1.10,2013-10-02 12:30:00,
2013-10-02 08:45:00,64.2,57.0,29.95,WNW,288,1.0,8.0,78,0.00,,,0.00,120,weatherlink.com 1.10,2013-10-02 12:45:00,
2013-10-02 09:00:00,65.0,58.0,29.95,West,281,2.0,9.0,77,0.00,,,0.00,455,weatherlink.com 1.10,2013-10-02 13:00:00,
2013-10-02 09:15:00,66.2,58.0,29.95,WSW,240,1.0,9.0,75,0.00,,,0.00,396,weatherlink.com 1.10,2013-10-02 13:15:00,
2013-10-02 09:30:00,66.6,58.0,29.95,WNW,282,2.0,7.0,75,0.00,,,0.00,439,weatherlink.com 1.10,2013-10-02 13:30:00,
2013-10-02 09:45:00,68.3,59.0,29.95,West,264,3.0,6.0,73,0.00,,,0.00,475,weatherlink.com 1.10,2013-10-02 13:45:00,
2013-10-02 10:00:00,69.3,59.0,29.95,SSW,198,1.0,10.0,70,0.00,,,0.00,506,weatherlink.com 1.10,2013-10-02 14:00:00,
2013-10-02 10:15:00,70.5,60.0,29.94,West,272,3.0,9.0,69,0.00,,,0.00,536,weatherlink.com 1.10,2013-10-02 14:15:00,
2013-10-02 10:30:00,71.6,60.0,29.93,WNW,291,4.0,10.0,66,0.00,,,0.00,566,weatherlink.com 1.10,2013-10-02 14:30:00,
2013-10-02 10:45:00,72.2,60.0,29.93,WSW,249,7.0,10.0,65,0.00,,,0.00,596,weatherlink.com 1.10,2013-10-02 14:45:00,
2013-10-02 11:00:00,73.1,60.0,29.93,WNW,301,4.0,10.0,64,0.00,,,0.00,619,weatherlink.com 1.10,2013-10-02 15:00:00,
2013-10-02 11:16:00,73.3,60.0,29.92,NW,325,4.0,12.0,63,0.00,,,0.00,642,weatherlink.com 1.10,2013-10-02 15:16:00,
2013-10-02 11:31:00,74.1,60.0,29.92,WNW,286,5.0,14.0,62,0.00,,,0.00,652,weatherlink.com 1.10,2013-10-02 15:31:00,
2013-10-02 11:46:00,74.9,61.0,29.91,West,265,15.0,15.0,62,0.00,,,0.00,666,weatherlink.com 1.10,2013-10-02 15:46:00,
2013-10-02 12:01:00,76.1,60.0,29.91,West,274,15.0,15.0,58,0.00,,,0.00,684,weatherlink.com 1.10,2013-10-02 16:01:00,
2013-10-02 12:16:00,76.2,60.0,29.91,West,267,6.0,14.0,57,0.00,,,0.00,621,weatherlink.com 1.10,2013-10-02 16:16:00,
2013-10-02 12:31:00,77.3,60.0,29.91,WSW,240,6.0,12.0,56,0.00,,,0.00,684,weatherlink.com 1.10,2013-10-02 16:31:00,
2013-10-02 12:46:00,77.6,61.0,29.91,WNW,301,5.0,13.0,56,0.00,,,0.00,679,weatherlink.com 1.10,2013-10-02 16:46:00,
2013-10-02 13:01:00,78.2,61.0,29.90,WNW,290,4.0,14.0,56,0.00,,,0.00,668,weatherlink.com 1.10,2013-10-02 17:01:00,
2013-10-02 13:16:00,77.6,60.0,29.90,WNW,284,14.0,19.0,55,0.00,,,0.00,664,weatherlink.com 1.10,2013-10-02 17:16:00,
2013-10-02 13:31:00,77.8,60.0,29.90,WNW,293,4.0,13.0,55,0.00,,,0.00,647,weatherlink.com 1.10,2013-10-02 17:31:00,
2013-10-02 13:46:00,78.5,60.0,29.90,NNW,328,9.0,15.0,53,0.00,,,0.00,636,weatherlink.com 1.10,2013-10-02 17:46:00,
2013-10-02 14:01:00,78.9,60.0,29.90,NW,317,7.0,18.0,53,0.00,,,0.00,613,weatherlink.com 1.10,2013-10-02 18:01:00,
2013-10-02 14:16:00,79.4,61.0,29.89,West,263,9.0,16.0,53,0.00,,,0.00,587,weatherlink.com 1.10,2013-10-02 18:16:00,
2013-10-02 14:31:00,80.0,61.0,29.89,West,259,9.0,14.0,53,0.00,,,0.00,568,weatherlink.com 1.10,2013-10-02 18:31:00,
2013-10-02 14:46:00,80.1,61.0,29.89,NW,311,9.0,16.0,53,0.00,,,0.00,536,weatherlink.com 1.10,2013-10-02 18:46:00,
2013-10-02 15:01:00,80.2,61.0,29.89,WNW,283,10.0,13.0,52,0.00,,,0.00,497,weatherlink.com 1.10,2013-10-02 19:01:00,
2013-10-02 15:16:00,80.0,61.0,29.89,NW,312,5.0,11.0,52,0.00,,,0.00,492,weatherlink.com 1.10,2013-10-02 19:16:00,
2013-10-02 15:31:00,80.3,61.0,29.89,West,263,7.0,12.0,52,0.00,,,0.00,455,weatherlink.com 1.10,2013-10-02 19:31:00,
2013-10-02 15:46:00,80.4,61.0,29.88,West,273,6.0,15.0,52,0.00,,,0.00,424,weatherlink.com 1.10,2013-10-02 19:46:00,
2013-10-02 16:01:00,80.5,61.0,29.88,WNW,292,6.0,12.0,52,0.00,,,0.00,360,weatherlink.com 1.10,2013-10-02 20:01:00,
2013-10-02 16:16:00,79.5,61.0,29.88,West,277,3.0,14.0,54,0.00,,,0.00,155,weatherlink.com 1.10,2013-10-02 20:16:00,
2013-10-02 16:32:00,80.1,61.0,29.88,West,277,14.0,15.0,53,0.00,,,0.00,325,weatherlink.com 1.10,2013-10-02 20:32:00,
2013-10-02 16:46:00,80.1,61.0,29.89,NNW,329,12.0,14.0,52,0.00,,,0.00,230,weatherlink.com 1.10,2013-10-02 20:46:00,
2013-10-02 17:01:00,79.4,60.0,29.89,WNW,288,6.0,17.0,52,0.00,,,0.00,169,weatherlink.com 1.10,2013-10-02 21:01:00,
2013-10-02 17:16:00,79.1,60.0,29.89,WNW,290,7.0,13.0,53,0.00,,,0.00,132,weatherlink.com 1.10,2013-10-02 21:16:00,
2013-10-02 17:31:00,78.4,60.0,29.89,WNW,292,5.0,12.0,54,0.00,,,0.00,86,weatherlink.com 1.10,2013-10-02 21:31:00,
2013-10-02 17:47:00,77.8,60.0,29.89,WNW,290,3.0,12.0,55,0.00,,,0.00,47,weatherlink.com 1.10,2013-10-02 21:47:00,
2013-10-02 18:02:00,76.9,59.0,29.91,West,273,6.0,11.0,55,0.00,,,0.00,21,weatherlink.com 1.10,2013-10-02 22:02:00,
2013-10-02 18:17:00,76.1,60.0,29.91,West,274,3.0,11.0,57,0.00,,,0.00,9,weatherlink.com 1.10,2013-10-02 22:17:00,
2013-10-02 18:32:00,75.3,60.0,29.92,WNW,302,2.0,9.0,59,0.00,,,0.00,0,weatherlink.com 1.10,2013-10-02 22:32:00,
2013-10-02 18:47:00,74.6,60.0,29.92,West,272,3.0,7.0,61,0.00,,,0.00,0,weatherlink.com 1.10,2013-10-02 22:47:00,
2013-10-02 19:02:00,74.0,61.0,29.93,WNW,286,3.0,8.0,63,0.00,,,0.00,0,weatherlink.com 1.10,2013-10-02 23:02:00,
2013-10-02 19:17:00,73.4,60.0,29.93,West,266,1.0,7.0,64,0.00,,,0.00,0,weatherlink.com 1.10,2013-10-02 23:17:00,
2013-10-02 19:32:00,72.9,60.0,29.93,West,273,3.0,9.0,65,0.00,,,0.00,0,weatherlink.com 1.10,2013-10-02 23:32:00,
2013-10-02 19:47:00,72.3,60.0,29.93,West,276,2.0,7.0,66,0.00,,,0.00,0,weatherlink.com 1.10,2013-10-02 23:47:00,
2013-10-02 20:02:00,71.9,60.0,29.94,SW,234,2.0,4.0,67,0.00,,,0.00,0,weatherlink.com 1.10,2013-10-03 00:02:00,
2013-10-02 20:17:00,71.5,60.0,29.95,West,272,1.0,4.0,68,0.00,,,0.00,0,weatherlink.com 1.10,2013-10-03 00:17:00,
2013-10-02 20:32:00,71.1,60.0,29.95,SW,232,3.0,8.0,68,0.00,,,0.00,0,weatherlink.com 1.10,2013-10-03 00:32:00,
2013-10-02 20:47:00,70.8,60.0,29.95,WSW,255,3.0,7.0,68,0.00,,,0.00,0,weatherlink.com 1.10,2013-10-03 00:47:00,
2013-10-02 21:02:00,70.3,60.0,29.96,West,272,3.0,4.0,69,0.00,,,0.00,0,weatherlink.com 1.10,2013-10-03 01:02:00,
2013-10-02 21:17:00,69.9,60.0,29.96,West,279,5.0,6.0,70,0.00,,,0.00,0,weatherlink.com 1.10,2013-10-03 01:17:00,
2013-10-02 21:32:00,69.4,60.0,29.96,West,269,3.0,8.0,71,0.00,,,0.00,0,weatherlink.com 1.10,2013-10-03 01:32:00,
2013-10-02 21:47:00,68.7,59.0,29.97,West,273,3.0,5.0,72,0.00,,,0.00,0,weatherlink.com 1.10,2013-10-03 01:47:00,
2013-10-02 22:02:00,68.0,59.0,29.97,WNW,288,3.0,6.0,74,0.00,,,0.00,0,weatherlink.com 1.10,2013-10-03 02:02:00,
2013-10-02 22:17:00,67.4,59.0,29.98,WSW,245,5.0,7.0,75,0.00,,,0.00,0,weatherlink.com 1.10,2013-10-03 02:17:00,
2013-10-02 22:32:00,67.0,59.0,29.98,West,277,4.0,8.0,75,0.00,,,0.00,0,weatherlink.com 1.10,2013-10-03 02:32:00,
2013-10-02 22:47:00,67.0,58.0,29.99,West,279,3.0,6.0,74,0.00,,,0.00,0,weatherlink.com 1.10,2013-10-03 02:47:00,
2013-10-02 23:02:00,66.7,59.0,29.99,West,273,3.0,6.0,75,0.00,,,0.00,0,weatherlink.com 1.10,2013-10-03 03:02:00,
2013-10-02 23:17:00,66.9,58.0,30.00,WSW,253,1.0,5.0,74,0.00,,,0.00,0,weatherlink.com 1.10,2013-10-03 03:17:00,
2013-10-02 23:32:00,66.8,58.0,30.00,WNW,284,2.0,5.0,74,0.00,,,0.00,0,weatherlink.com 1.10,2013-10-03 03:32:00,
2013-10-02 23:47:00,66.3,58.0,30.00,WNW,285,0.0,5.0,75,0.00,,,0.00,0,weatherlink.com 1.10,2013-10-03 03:47:00,